Location: Mundon
(51.6833°N, 0.7167°E)
Time: 23:03:21
(UTC+00:00)

Daily predictions for brighter satellites

Satellite Brightness Start Highest point End
(mag) Time Altitude Azimuth Time Altitude Azimuth Time Altitude Azimuth
Cosmos 2279 Rocket 4.4 16:18:55 10° SSE 16:24:39 41° E 16:30:26 10° NNE
Cosmos 1570 Rocket 4.0 16:20:05 10° NNW 16:25:27 72° ENE 16:30:45 10° SSE
Cosmos 1092 Rocket 4.0 16:20:09 10° N 16:26:21 86° E 16:32:29 10° S
Cosmos 836 Rocket 4.5 16:23:30 10° NNW 16:28:45 69° ENE 16:33:59 10° SSE
SMAP 3.5 16:27:10 10° SE 16:31:30 39° ENE 16:35:51 10° N
Cosmos 1656 4.3 16:26:40 10° S 16:31:50 39° ESE 16:37:03 10° NE
Cosmos 1867 3.9 16:29:18 10° NW 16:34:35 45° NE 16:39:48 10° ESE
NOSS 2-2 (C) 2.8 16:31:54 10° SSW 16:35:05 61° SE 16:38:03 10° NE
Cosmos 2228 3.0 16:31:33 10° S 16:35:42 60° E 16:39:54 10° NNE
YAOGAN 1 4.3 16:33:59 10° ENE 16:35:44 12° NE 16:37:30 10° NNE
Landsat 7 4.3 16:32:48 10° SE 16:37:00 35° ENE 16:41:14 10° N
Cosmos 2297 Rocket 2.2 16:33:12 10° NNW 16:38:50 62° NE 16:44:26 10° SE
USA 290 2.7 16:35:59 10° NNW 16:39:04 38° ENE 16:42:09 10° SE
Cosmos 773 Rocket 4.0 16:37:04 10° NNW 16:42:17 72° ENE 16:47:31 10° SSE
USA 215 3.5 16:35:59 10° ENE 16:42:23 58° N 16:48:48 10° W
Cosmos 2034 Rocket 4.5 16:37:30 10° SSW 16:43:47 67° WNW 16:50:10 10° N
ATLAS CENTAUR R/B 0.8 16:42:36 10° NW 16:45:52 82° SW 16:49:02 10° SE
Cosmos 1782 3.0 16:42:48 10° SSE 16:46:10 39° E 16:49:33 10° NNE
CZ-4C R/B 2.9 16:39:56 10° NW 16:46:28 68° NE 16:54:45 10° ESE
JB-3 4.4 16:43:34 10° N 16:47:14 72° WNW 16:50:51 10° SSW
Cosmos 1607 3.9 16:41:41 10° NW 16:47:55 75° NE 16:54:13 10° SE
Cosmos 1733 1.1 16:47:31 10° N 16:49:06 45° ENE 16:50:39 10° SSE
CZ-2D R/B 3.5 16:49:56 10° SE 16:52:44 31° ENE 16:55:35 10° N
Lacrosse 4 Rocket 2.2 16:51:02 10° WSW 16:54:57 45° NW 16:58:49 10° NNE
Cosmos 2219 4.3 16:50:32 10° NNW 16:55:09 24° NE 16:59:37 11° E
IRS-P3 4.5 16:50:57 10° SE 16:55:54 41° ENE 17:00:51 10° N
Cosmos 1825 Rocket 4.4 16:52:10 10° N 16:55:56 27° ENE 16:59:39 10° SE
ARIANE 5 R/B 2.6 16:52:38 10° SE 16:57:33 54° ENE 17:02:33 10° N
Meteor 1-27 4.4 16:51:57 10° SSW 16:57:46 82° WNW 17:03:33 10° NNE
Iridium 51 3.9 16:54:48 10° S 16:57:56 75° W 17:01:08 10° N
Cosmos 1758 Rocket 3.4 16:54:02 10° N 16:58:23 79° E 17:02:39 10° SSE
Cosmos 2266 Rocket 4.1 16:52:21 10° N 16:58:24 51° ENE 17:04:17 10° SSE
Cosmos 1315 Rocket 3.2 16:55:25 10° SSW 16:59:12 61° WNW 17:03:01 10° N
Cosmos 2208 Rocket 4.1 16:56:47 10° NNW 17:01:59 83° WSW 17:07:10 10° SSE
Cosmos 2098 Rocket 3.2 16:58:35 10° S 17:02:35 54° E 17:07:21 10° NNE
Cosmos 2151 3.0 16:59:37 10° N 17:03:43 55° ENE 17:07:48 10° SSE
Cosmos 1743 2.2 17:01:11 10° N 17:04:27 65° E 17:07:40 10° SSE
Cosmos 1980 Rocket 3.8 17:04:54 10° ESE 17:07:27 13° E 17:08:01 13° E
SPOT 1/Viking Rocket 4.1 17:02:55 10° SE 17:07:36 35° ENE 17:12:18 10° N
Cosmos 1844 Rocket 4.3 17:05:59 10° N 17:09:16 15° NNE 17:10:59 14° NE
SL-08 ROCKET BODY 4.4 17:06:00 10° N 17:11:58 87° W 17:18:00 10° S
SL-16 R/B 2.7 17:09:13 10° NNE 17:15:28 79° WNW 17:21:40 10° SSW
Cosmos 2263 Rocket 2.7 17:11:47 10° NNW 17:17:04 38° NE 17:22:21 10° ESE
NOSS 3-2 (A) 3.2 17:13:56 10° SW 17:19:03 90° SE 17:24:05 16° NE
NOSS 3-2 (C) 3.6 17:14:23 10° SSW 17:19:11 44° ESE 17:23:02 19° ENE
IGS 5A 4.4 17:16:48 10° S 17:20:37 48° W 17:24:30 10° NNW
CORIOLIS 4.3 17:15:20 10° SSE 17:20:40 78° WSW 17:26:03 10° NNW
Cosmos 1626 Rocket 4.3 17:17:23 10° NNW 17:21:38 54° W 17:25:49 10° S
Cosmos 783 Rocket 4.4 17:17:45 10° NNW 17:23:05 75° ENE 17:28:22 10° SSE
GEOS 3 Rocket 3.7 17:19:36 16° NE 17:23:58 77° SE 17:29:21 10° SW
MOS 1 Rocket 3.4 17:19:53 10° SSE 17:24:44 66° ENE 17:29:54 10° N
BREEZE M DEB (TANK) 3.5 17:23:11 10° SSW 17:24:53 18° SSE 17:25:20 17° SE
Cosmos 1076 Rocket 4.1 17:21:26 10° N 17:25:22 33° ENE 17:29:18 10° SE
AQUARIUS 4.0 17:23:20 10° SSE 17:27:43 72° ENE 17:32:08 10° N
Cosmos 1933 3.6 17:25:06 10° SSE 17:28:43 41° E 17:30:45 22° NE
Cosmos 2084 Rocket 3.5 17:25:38 10° NW 17:29:51 77° SW 17:34:03 10° SE
Cosmos 2227 Rocket 2.1 17:24:24 10° NNW 17:30:03 67° NE 17:35:40 10° SE
SJ-12 3.6 17:26:50 10° SSE 17:30:36 89° ENE 17:34:25 10° NNW
Cosmos 1538 Rocket 4.4 17:26:03 10° NNW 17:31:00 39° NE 17:35:59 10° SE
BlueWalker 3 4.4 17:28:34 10° W 17:31:20 21° SW 17:34:05 10° S
Meteor 1-28 Rocket 3.9 17:28:55 10° N 17:32:10 46° WNW 17:35:22 10° SW
Cosmos 1606 Rocket 3.8 17:28:02 10° SSE 17:32:13 45° E 17:35:23 17° NNE
Cosmos 1900 4.4 17:27:26 10° NW 17:32:32 87° SW 17:37:31 10° SE
Cosmos 2360 4.2 17:27:04 10° SSW 17:32:46 78° ESE 17:37:26 16° NNE
Thor Agena Rocket 4.4 17:28:56 10° S 17:34:02 54° W 17:39:06 10° NNW
Cosmos 2369 Rocket 4.1 17:31:19 10° W 17:35:33 21° NW 17:39:50 10° NNE
Cosmos 1943 Rocket 4.4 17:36:33 10° N 17:36:53 10° N 17:37:13 10° N
PSLV R/B 4.0 17:36:04 25° ESE 17:37:29 32° ENE 17:41:07 10° N
CZ-2D R/B 3.7 17:34:12 10° SE 17:38:12 44° ENE 17:42:10 10° N
COSMO-SKYMED 1 3.8 17:39:14 21° ESE 17:39:14 21° ESE 17:41:34 10° SSE
NOSS 2-2 (D) 2.9 17:35:47 10° SW 17:38:58 61° NW 17:40:03 34° NNE
Cosmos 1544 Rocket 4.3 17:37:01 10° SSW 17:41:21 55° WNW 17:45:43 10° N
SL-19 R/B 4.5 17:36:56 10° SE 17:42:03 46° ENE 17:47:27 10° N
Resurs 1-3 3.9 17:38:13 10° SE 17:42:14 40° ENE 17:46:17 10° N
BREEZE-M DEB (TANK) 3.7 17:39:18 10° W 17:42:27 70° S 17:48:33 19° ESE
Cosmos 1503 Rocket 3.9 17:37:17 10° SSW 17:42:29 70° ESE 17:46:10 20° NNE
Cosmos 2278 Rocket 4.4 17:45:47 10° NNW 17:46:54 11° N 17:48:01 10° N
Cosmos 1697 Rocket 2.8 17:42:31 10° S 17:47:55 52° ESE 17:50:45 27° NE
Okean 1-7 Rocket 3.7 17:44:21 10° NNW 17:48:45 76° W 17:53:06 10° S
Lacrosse 5 rocket 1.8 17:45:29 10° W 17:49:03 41° NNW 17:49:58 34° NNE
Cosmos 1354 Rocket 4.0 17:45:36 10° S 17:50:46 59° ESE 17:53:34 27° NE
BREEZE-M DEB (TANK) 3.7 17:48:22 10° W 17:51:38 82° N 17:57:03 25° E
Cosmos 1461 2.6 17:49:32 10° SSW 17:53:24 66° SE 17:54:18 48° ENE
NOSS 2-2 (E) 3.1 17:50:42 10° WSW 17:53:51 55° NW 17:54:24 46° N
Spot 4 Rocket 3.9 17:50:59 10° SSE 17:56:00 62° ENE 18:01:05 10° N
IRAS Rocket 4.2 17:51:54 10° SE 17:57:16 57° ENE 18:02:38 10° NNW
Cosmos 1726 Rocket 3.6 17:52:54 10° S 17:57:27 60° E 17:59:49 27° NNE
Cosmos 1655 Rocket 3.9 17:53:30 10° N 17:59:48 76° E 18:06:00 10° SSE
SKYMED 2 3.6 17:59:36 39° NE 18:00:55 57° E 18:05:11 10° S
Cosmos 1777 Rocket 4.1 17:56:21 10° SSW 18:01:37 76° WNW 18:05:19 20° NNE
Gbstr 26 Del rocket 3.7 17:59:01 10° SSW 18:02:33 31° SSE 18:02:38 31° SE
Radarsat Rocket 4.5 17:56:44 10° SSE 18:04:50 72° ENE 18:12:03 10° NNW
NOAA 15 4.5 18:01:16 10° SSE 18:06:33 77° ENE 18:11:51 10° NNW
Meteor 2-10 4.0 18:01:43 10° N 18:07:00 61° ENE 18:12:26 10° SSE
CENTAUR R/B 3.5 18:02:12 10° W 18:08:08 42° NNW 18:12:28 23° NE
YAOGAN 1 2.3 18:06:37 10° SSE 18:10:52 77° ENE 18:15:08 10° NNW
Cosmos 2082 3.8 18:10:26 10° NNW 18:16:01 52° NE 18:17:04 46° E
USA 281 4.2 18:17:15 26° NE 18:17:15 26° NE 18:22:11 10° NNW
USA 238 DEB 3.9 18:13:39 10° S 18:19:19 42° ESE 18:19:57 40° ESE
USA 238 3.9 18:13:46 10° S 18:19:26 41° ESE 18:20:02 40° ESE
SJ-7 4.2 18:19:54 72° NNW 18:19:54 72° NNW 18:23:19 10° NNW
Resurs 01 Rocket 3.8 18:25:00 14° N 18:25:00 14° N 18:25:41 10° N
Cosmos 2297 Rocket 4.2 18:17:46 10° NW 18:22:30 28° WSW 18:27:13 10° SSW
Cosmos 1953 Rocket 3.6 18:18:38 10° NNW 18:23:04 77° W 18:27:31 10° S
USA 215 3.3 18:22:49 42° ENE 18:25:01 64° NNE 18:31:30 10° WNW
Aureole 1 Rocket 4.1 18:24:31 10° S 18:27:16 36° SSE 18:27:16 36° SSE
Lacrosse 4 Rocket 3.8 18:31:52 10° NW 18:33:45 13° NNW 18:34:34 12° NNW
CZ-4C R/B 4.0 18:28:12 10° NW 18:34:50 45° WSW 18:42:52 10° S
USA 81 4.0 18:31:23 10° N 18:36:41 81° W 18:41:56 10° S
Cosmos 990 Rocket 4.1 18:33:14 10° SSW 18:38:22 73° WNW 18:39:47 47° N
Cosmos 2219 3.1 18:34:20 10° NNW 18:40:07 86° ENE 18:41:35 53° SE
NOAA 6 4.0 18:36:10 10° SSE 18:41:16 83° WSW 18:46:25 10° NNW
Cosmos 1980 Rocket 2.2 18:44:48 10° SSW 18:49:48 65° SSE 18:49:48 65° SSE
Cosmos 2058 Rocket 4.3 18:49:24 10° SSW 18:51:55 33° SSW 18:51:55 33° SSW
Nadezhda 2 Rocket 4.3 18:47:54 10° N 18:54:05 87° W 19:00:12 10° S
Cosmos 1844 Rocket 3.8 18:49:17 10° NNW 18:52:37 31° N 18:52:37 31° N
Cosmos 2263 Rocket 2.9 18:55:42 10° NW 19:01:10 50° WSW 19:04:59 19° S
Cosmos 1553 Rocket 3.8 19:00:54 10° S 19:06:49 83° S 19:06:49 83° S
NOSS 3-2 (C) 3.8 19:04:42 10° WSW 19:09:54 51° NNW 19:10:27 49° NNW
Meteor 2-11 Rocket 4.4 19:04:01 10° NNW 19:09:57 82° NNW 19:09:57 82° NNW
NOSS 3-2 (A) 4.4 19:05:29 10° W 19:10:37 35° NNW 19:11:26 34° N
Cosmos 2227 Rocket 4.2 19:09:05 10° NW 19:13:38 25° WSW 19:18:09 10° SSW
COSMO-SKYMED 1 4.4 19:15:34 25° WSW 19:15:34 25° WSW 19:17:34 10° SW
Lacrosse 5 rocket 4.2 19:23:11 10° WNW 19:23:33 12° WNW 19:23:33 12° WNW
Cosmos 1697 Rocket 3.9 19:26:56 10° WSW 19:32:06 36° NW 19:32:28 36° NW
CENTAUR R/B 4.0 19:54:16 10° WNW 19:59:34 33° N 19:59:34 33° N
USA 215 4.1 20:10:10 45° WNW 20:10:10 45° WNW 20:14:36 10° WNW
